TimePDT,TemperatureF,Dew PointF,Humidity,Sea Level PressureIn,VisibilityMPH,Wind Direction,Wind SpeedMPH,Gust SpeedMPH,PrecipitationIn,Events,Conditions,WindDirDegrees,DateUTC
12:15 AM,55.4,35.6,47,30.00,10.0,Calm,Calm,-,N/A,,Clear,0,2013-10-07 07:15:00
12:35 AM,57.2,33.8,41,30.00,10.0,Calm,Calm,-,N/A,,Clear,0,2013-10-07 07:35:00
12:55 AM,55.4,33.8,44,30.00,10.0,Calm,Calm,-,N/A,,Clear,0,2013-10-07 07:55:00
1:15 AM,55.4,35.6,47,30.00,10.0,Calm,Calm,-,N/A,,Clear,0,2013-10-07 08:15:00
1:35 AM,55.4,35.6,47,30.00,10.0,Calm,Calm,-,N/A,,Clear,0,2013-10-07 08:35:00
1:55 AM,53.6,35.6,51,30.00,10.0,Calm,Calm,-,N/A,,Clear,0,2013-10-07 08:55:00
2:15 AM,55.4,35.6,47,30.00,10.0,Calm,Calm,-,N/A,,Clear,0,2013-10-07 09:15:00
2:35 AM,53.6,33.8,47,29.99,10.0,WNW,3.5,-,N/A,,Clear,300,2013-10-07 09:35:00
2:55 AM,53.6,35.6,51,29.99,10.0,Calm,Calm,-,N/A,,Clear,0,2013-10-07 09:55:00
3:15 AM,48.2,33.8,58,29.98,10.0,Calm,Calm,-,N/A,,Clear,0,2013-10-07 10:15:00
3:35 AM,50.0,35.6,58,29.98,10.0,Calm,Calm,-,N/A,,Clear,0,2013-10-07 10:35:00
3:55 AM,48.2,33.8,58,29.98,10.0,North,4.6,-,N/A,,Clear,350,2013-10-07 10:55:00
4:15 AM,48.2,33.8,58,29.98,10.0,Calm,Calm,-,N/A,,Clear,0,2013-10-07 11:15:00
4:35 AM,48.2,35.6,62,29.98,10.0,Calm,Calm,-,N/A,,Clear,0,2013-10-07 11:35:00
4:55 AM,46.4,35.6,66,29.97,10.0,Calm,Calm,-,N/A,,Clear,0,2013-10-07 11:55:00
5:15 AM,46.4,35.6,66,29.97,10.0,Calm,Calm,-,N/A,,Clear,0,2013-10-07 12:15:00
5:35 AM,48.2,35.6,62,29.97,10.0,Calm,Calm,-,N/A,,Clear,0,2013-10-07 12:35:00
5:55 AM,46.4,35.6,66,29.97,10.0,Calm,Calm,-,N/A,,Clear,0,2013-10-07 12:55:00
6:15 AM,48.2,35.6,62,29.98,10.0,Calm,Calm,-,N/A,,Clear,0,2013-10-07 13:15:00
6:35 AM,46.4,35.6,66,29.98,10.0,Calm,Calm,-,N/A,,Clear,0,2013-10-07 13:35:00
6:55 AM,46.4,35.6,66,29.98,10.0,Calm,Calm,-,N/A,,Clear,0,2013-10-07 13:55:00
7:15 AM,46.4,35.6,66,29.98,10.0,NW,4.6,-,N/A,,Clear,310,2013-10-07 14:15:00
7:35 AM,42.8,32.0,66,29.99,10.0,North,4.6,-,N/A,,Clear,10,2013-10-07 14:35:00
7:55 AM,48.2,33.8,58,30.00,10.0,Calm,Calm,-,N/A,,Clear,0,2013-10-07 14:55:00
8:15 AM,48.2,35.6,62,30.00,10.0,Calm,Calm,-,N/A,,Clear,0,2013-10-07 15:15:00
8:35 AM,51.8,37.4,58,30.00,10.0,North,3.5,-,N/A,,Clear,360,2013-10-07 15:35:00
8:55 AM,53.6,37.4,54,30.00,10.0,Calm,Calm,-,N/A,,Clear,0,2013-10-07 15:55:00
9:15 AM,55.4,37.4,51,30.00,10.0,Calm,Calm,-,N/A,,Clear,0,2013-10-07 16:15:00
9:35 AM,59.0,37.4,45,30.00,10.0,Calm,Calm,-,N/A,,Clear,0,2013-10-07 16:35:00
9:55 AM,62.6,37.4,39,30.00,10.0,Calm,Calm,-,N/A,,Clear,0,2013-10-07 16:55:00
10:15 AM,64.4,37.4,37,30.00,10.0,Calm,Calm,-,N/A,,Clear,0,2013-10-07 17:15:00
10:35 AM,66.2,35.6,32,30.00,10.0,Calm,Calm,-,N/A,,Clear,0,2013-10-07 17:35:00
10:55 AM,68.0,35.6,30,29.99,10.0,North,3.5,-,N/A,,Clear,350,2013-10-07 17:55:00
11:15 AM,71.6,32.0,23,29.98,10.0,Calm,Calm,-,N/A,,Clear,0,2013-10-07 18:15:00
11:35 AM,73.4,33.8,23,29.97,10.0,Calm,Calm,-,N/A,,Clear,0,2013-10-07 18:35:00
11:55 AM,75.2,33.8,22,29.97,10.0,NE,3.5,-,N/A,,Clear,40,2013-10-07 18:55:00
12:15 PM,77.0,32.0,19,29.96,10.0,NE,3.5,-,N/A,Rain,Light Rain,50,2013-10-07 19:15:00
12:35 PM,80.6,32.0,17,29.95,10.0,SSE,5.8,-,N/A,Rain,Light Rain,150,2013-10-07 19:35:00
12:55 PM,80.6,35.6,20,29.94,10.0,ESE,6.9,-,N/A,Rain,Light Rain,110,2013-10-07 19:55:00
1:15 PM,80.6,33.8,18,29.94,10.0,SSE,4.6,-,N/A,Rain,Light Rain,150,2013-10-07 20:15:00
1:35 PM,80.6,32.0,17,29.93,10.0,SSE,5.8,-,N/A,Rain,Light Rain,160,2013-10-07 20:35:00
1:55 PM,82.4,32.0,16,29.92,10.0,SSE,6.9,-,N/A,Rain,Light Rain,160,2013-10-07 20:55:00
2:15 PM,82.4,32.0,16,29.91,10.0,SSW,6.9,-,N/A,Rain,Light Rain,200,2013-10-07 21:15:00
2:35 PM,84.2,21.2,10,29.91,10.0,NW,8.1,-,N/A,,Clear,320,2013-10-07 21:35:00
2:55 PM,84.2,21.2,10,29.90,10.0,NW,9.2,-,N/A,,Clear,320,2013-10-07 21:55:00
3:15 PM,84.2,19.4,9,29.90,10.0,NW,9.2,-,N/A,,Clear,310,2013-10-07 22:15:00
3:35 PM,84.2,19.4,9,29.90,10.0,WSW,10.4,-,N/A,,Clear,240,2013-10-07 22:35:00
3:55 PM,84.2,23.0,11,29.89,10.0,West,10.4,16.1,N/A,,Clear,260,2013-10-07 22:55:00
4:15 PM,82.4,26.6,13,29.89,10.0,WSW,13.8,17.3,N/A,,Clear,240,2013-10-07 23:15:00
4:35 PM,80.6,26.6,14,29.88,10.0,West,10.4,-,N/A,,Clear,260,2013-10-07 23:35:00
4:55 PM,80.6,26.6,14,29.88,10.0,WSW,9.2,-,N/A,,Clear,240,2013-10-07 23:55:00
5:15 PM,78.8,28.4,16,29.88,10.0,Calm,Calm,-,N/A,,Clear,0,2013-10-08 00:15:00
5:35 PM,77.0,37.4,24,29.87,10.0,SSE,3.5,-,N/A,,Clear,150,2013-10-08 00:35:00
5:55 PM,75.2,37.4,25,29.87,10.0,SSW,6.9,-,N/A,,Clear,200,2013-10-08 00:55:00
6:15 PM,73.4,39.2,29,29.87,10.0,South,5.8,-,N/A,,Clear,170,2013-10-08 01:15:00
6:35 PM,69.8,41.0,35,29.87,10.0,South,4.6,-,N/A,,Clear,180,2013-10-08 01:35:00
6:55 PM,68.0,41.0,37,29.87,10.0,SE,4.6,-,N/A,,Clear,130,2013-10-08 01:55:00
7:15 PM,66.2,39.2,37,29.87,10.0,East,5.8,-,N/A,,Clear,90,2013-10-08 02:15:00
7:35 PM,64.4,39.2,40,29.88,10.0,ESE,6.9,-,N/A,,Clear,110,2013-10-08 02:35:00
7:55 PM,64.4,41.0,42,29.88,10.0,SE,4.6,-,N/A,,Clear,130,2013-10-08 02:55:00
8:15 PM,62.6,41.0,45,29.88,10.0,East,5.8,-,N/A,,Clear,80,2013-10-08 03:15:00
8:35 PM,57.2,41.0,55,29.88,10.0,NE,3.5,-,N/A,,Clear,50,2013-10-08 03:35:00
8:55 PM,55.4,42.8,63,29.88,10.0,Calm,Calm,-,N/A,,Clear,0,2013-10-08 03:55:00
9:15 PM,55.4,44.6,67,29.89,10.0,North,4.6,-,N/A,,Clear,10,2013-10-08 04:15:00
9:35 PM,55.4,44.6,67,29.89,10.0,NNE,3.5,-,N/A,,Clear,30,2013-10-08 04:35:00
9:55 PM,55.4,44.6,67,29.89,10.0,NE,4.6,-,N/A,,Clear,40,2013-10-08 04:55:00
10:15 PM,55.4,44.6,67,29.89,10.0,Calm,Calm,-,N/A,,Clear,0,2013-10-08 05:15:00
10:35 PM,55.4,44.6,67,29.90,10.0,Calm,Calm,-,N/A,,Clear,0,2013-10-08 05:35:00
10:55 PM,55.4,44.6,67,29.90,10.0,Calm,Calm,-,N/A,,Clear,0,2013-10-08 05:55:00
11:15 PM,53.6,44.6,72,29.90,10.0,Calm,Calm,-,N/A,,Clear,0,2013-10-08 06:15:00
11:35 PM,51.8,44.6,76,29.90,10.0,Calm,Calm,-,N/A,,Clear,0,2013-10-08 06:35:00
11:55 PM,53.6,44.6,72,29.90,10.0,Calm,Calm,-,N/A,,Clear,0,2013-10-08 06:55:00